Location: Vigo di Fassa
(46.4167°N, 11.6667°E)
Time: 18:35:54
(UTC+00:00)

Gbstr 26 Del rocket - Visible Passes

Search period start: 22 June 2021 00:00
Search period end: 02 July 2021 00:00
Orbit: 493 x 1263 km, 51.8° (Epoch: 21 June)

Date Brightness Start Highest point End Pass type
(mag) Time Alt. Az. Time Alt. Az. Time Alt. Az.
23 Jun 4.4 02:38:40 10° SSW 02:43:02 39° SE 02:48:20 10° ENE visible
24 Jun 4.0 02:33:35 10° SSW 02:38:02 47° SE 02:43:31 10° ENE visible
25 Jun 5.5 00:46:36 10° SE 00:47:26 10° ESE 00:48:17 10° ESE visible
25 Jun 3.8 02:28:34 10° SW 02:33:04 56° SE 02:38:40 10° ENE visible
26 Jun 5.2 00:41:12 13° SE 00:42:18 13° ESE 00:44:41 10° E visible
26 Jun 3.5 02:23:43 11° SW 02:28:08 67° SE 02:33:48 10° ENE visible
27 Jun 4.9 00:36:21 16° SE 00:37:12 17° SE 00:40:22 10° E visible
27 Jun 3.4 02:18:52 11° SW 02:23:14 78° SSE 02:28:55 10° ENE visible
28 Jun 4.6 00:31:28 20° SE 00:32:08 21° SE 00:35:50 10° E visible
28 Jun 3.4 02:13:58 11° WSW 02:18:21 90° SSE 02:24:02 10° ENE visible
29 Jun 4.3 00:26:33 25° SE 00:27:05 26° SE 00:31:10 10° ENE visible
29 Jun 3.4 02:09:03 11° WSW 02:13:29 79° NNW 02:19:09 10° ENE visible
30 Jun 3.9 00:21:35 31° SSE 00:22:04 32° SE 00:26:26 10° ENE visible
30 Jun 3.6 02:04:09 10° WSW 02:08:39 70° NNW 02:14:16 10° ENE visible
01 Jul 3.6 00:16:35 38° SSE 00:17:04 39° SE 00:21:40 10° ENE visible
01 Jul 3.7 01:59:22 10° W 02:03:50 63° NNW 02:09:23 10° ENE visible
